Glasgow, MT

8:26 AM MST on February 07, 2016 (GMT -0700)
Wokal-Glasgow International

Weather History for KGGW - August, 2014

Change the Weather History Date:

Tuesday, August 19, 2014

  Actual Average Record
Temperature  
Mean Temperature 78 °F 70 °F  
Max Temperature 94 °F 84 °F 103 °F (2008)
Min Temperature 61 °F 56 °F 33 °F (1950)
Degree Days  
Heating Degree Days 0 1  
Month to date heating degree days 0 11  
Since 1 June heating degree days 112 134  
Since 1 July heating degree days 4 29  
Cooling Degree Days 13 6  
Month to date cooling degree days 180 141  
Year to date cooling degree days 451 440  
Since 1 June cooling degree days 417 423  
Growing Degree Days 27 (Base 50)    
Moisture  
Dew Point 51 °F    
Average Humidity 48    
Maximum Humidity 78    
Minimum Humidity 17    
Precipitation  
Precipitation 0.00 in 0.04 in 2.85 in (1912)
Month to date precipitation 1.20 0.81  
Year to date precipitation 7.43 8.74  
Snow  
Snow 0.00 in 0.00 in 0.00 in (2002)
Month to date snowfall 0.0 0.0  
Since 1 June snowfall 0.0 0.0  
Since 1 July snowfall 0.0 0.0  
Snow Depth 0.00 in    
Sea Level Pressure  
Sea Level Pressure 29.63 in    
Wind  
Wind Speed 8 mph (SE)    
Max Wind Speed 17 mph    
Max Gust Speed 23 mph    
Visibility 10 miles    
Events      
T = Trace of Precipitation, MM = Missing Value Source: NWS Daily Summary

Daily Weather History Graph

Daily Weather History Graph

Search for Another Location

Airport or City:

Trip Planner

Search our weather history database for the weather conditions in past years. The results will help you decide how hot, cold, wet, or windy it might be!

Date:

Astronomy

Aug. 19, 2014 Rise Set
Actual Time 6:06 AM MDT 8:12 PM MDT
Civil Twilight 5:32 AM MDT 8:46 PM MDT
Nautical Twilight 4:50 AM MDT 9:28 PM MDT
Astronomical Twilight 4:03 AM MDT 10:14 PM MDT
Moon 12:52 AM MDT (8/19) 4:20 PM MDT (8/19)
Length of Visible Light 15h 13m
Length of Day
14h 06m
Waning Crescent, 28% of the Moon is Illuminated
Aug 19
Waning Crescent
Aug 25
New
Sep 2
First Quarter
Sep 8
Full
Sep 15
Last Quarter

Hourly Weather History & Observations

Time (MDT) Temp. Heat Index Dew Point Humidity Pressure Visibility Wind Dir Wind Speed Gust Speed Precip Events Conditions
12:53 AM 64.9 °F - 57.0 °F 75% 29.76 in 9.0 mi East 9.2 mph - N/A   Clear
1:53 AM 64.9 °F - 53.1 °F 65% 29.74 in 10.0 mi ESE 10.4 mph - N/A   Clear
2:53 AM 62.6 °F - 53.6 °F 72% 29.77 in 10.0 mi East 10.4 mph - N/A   Clear
3:53 AM 63.0 °F - 53.1 °F 70% 29.73 in 10.0 mi ESE 10.4 mph - N/A   Clear
4:53 AM 63.0 °F - 54.0 °F 72% 29.73 in 10.0 mi East 10.4 mph - N/A   Overcast
5:53 AM 62.1 °F - 54.0 °F 75% 29.72 in 9.0 mi ESE 10.4 mph - N/A   Partly Cloudy
6:53 AM 62.1 °F - 54.0 °F 75% 29.71 in 8.0 mi East 11.5 mph - N/A   Clear
7:53 AM 66.0 °F - 55.0 °F 68% 29.70 in 8.0 mi ESE 12.7 mph - N/A   Clear
8:53 AM 71.1 °F - 55.9 °F 59% 29.70 in 8.0 mi ESE 12.7 mph - N/A   Clear
9:53 AM 75.9 °F - 55.9 °F 50% 29.68 in 9.0 mi SE 10.4 mph - N/A   Mostly Cloudy
10:53 AM 81.0 °F 80.7 °F 55.0 °F 41% 29.66 in 9.0 mi SE 13.8 mph - N/A   Scattered Clouds
11:53 AM 87.1 °F 84.9 °F 53.1 °F 31% 29.64 in 10.0 mi SSE 16.1 mph 20.7 mph N/A   Clear
12:53 PM 88.0 °F - 52.0 °F 29% 29.61 in 10.0 mi South 9.2 mph - N/A   Clear
1:53 PM 90.0 °F - 52.0 °F 27% 29.60 in 10.0 mi SW 10.4 mph - N/A   Clear
2:53 PM 91.9 °F - 48.9 °F 23% 29.59 in 10.0 mi SSW 9.2 mph - N/A   Clear
3:53 PM 91.9 °F - 50.0 °F 24% 29.57 in 10.0 mi Variable 5.8 mph - N/A   Clear
4:53 PM 93.2 °F - 42.8 °F 17% 29.60 in 10.0 mi West 9.2 mph - N/A   Clear
5:53 PM 93.0 °F - 44.1 °F 18% 29.54 in 10.0 mi WSW 9.2 mph - N/A   Clear
6:53 PM 91.0 °F - 43.0 °F 19% 29.54 in 10.0 mi Calm Calm - N/A   Clear
7:53 PM 88.0 °F - 46.0 °F 23% 29.55 in 10.0 mi Variable 3.5 mph - N/A   Clear
8:53 PM 82.0 °F - 44.1 °F 26% 29.55 in 10.0 mi NW 3.5 mph - N/A   Clear
9:53 PM 73.9 °F - 46.9 °F 38% 29.56 in 10.0 mi NE 4.6 mph - N/A   Clear
10:53 PM 78.1 °F - 44.1 °F 30% 29.54 in 10.0 mi Calm Calm - N/A   Clear
11:53 PM 69.1 °F - 48.9 °F 49% 29.54 in 10.0 mi ESE 4.6 mph - N/A   Clear